www.pogodaiklimat.ru

Погода и климат >> Архив погоды >> Буркина-Фасо >> Уагадугу


ПОГОДА в Уагадугу

  • Прогноз погоды в Уагадугу
  • Монитор погоды в Уагадугу

АРХИВ ПОГОДЫ в Уагадугу

Время (UTC), дата Ветер
(напр.,м/с)
 
Видим.   Явления Облачность Т
(С)
Тd
(С)
f
(%)
Тe
(С)
Тes
(С)
Комфортность P
(гПа)
Po
(гПа)
Тmin
(С)
Tmax
(С)
R
(мм)
R24
(мм)
S
(см)
12 11.06 Ю 3 10 км 9/6 600 м
[Cu Sc Ci sp]
+33.4 +22.9 54 +43 +49 опасность
перегрева
1011.0 977.4
15 11.06 Ю 3 10 км 9/5 600 м
[Cu Sc Ci sp]
+35.1 +20.9 44 +42 +46 опасность
перегрева
1008.2 974.7
18 11.06 Ю 2 10 км 9/1 600 м
[Cu Sc Ci sp]
+34.5 +20.9 45 +42 +42 опасность
перегрева
1008.2 974.6 +36.1
21 11.06 Ю 5 10 км 9/0
[Ci sp]
+32.0 +21.9 55 +41 +41 опасность
перегрева
1009.9 976.2
00 12.06 ЮЗ 3 10 км 9/0
[Ci sp]
+30.5 +22.6 63 +40 +40 очень
душно
1010.7 977.1
03 12.06 З 3 10 км 9/0
[Ci sp]
+28.4 +22.7 71 +38 +38 очень
душно
1010.5 976.9
06 12.06 ЮЗ 4 10 км 9/0
[Ci sp]
+27.5 +23.1 77 +37 +37 очень
душно
1011.0 977.6 +27.4
09 12.06 ЮЗ 3 10 км 9/1 600 м
[Sc Ac trans Ci sp]
+30.1 +21.9 62 +39 +43 очень
душно
1013.3 979.5
12 12.06 Ю 3 10 км 9/1 600 м
[Cu Sc Ci sp]
+33.8 +20.7 46 +41 +54 опасность
перегрева
1011.9 978.3
15 12.06 ЮЗ 3 10 км 9/4 600 м
[Cu Sc Ci sp]
+36.1 +20.6 41 +43 +48 опасность
перегрева
1009.2 975.7
18 12.06 З 2 10 км 9/3
[Cu Sc Ci sp]
+35.4 +19.3 39 +41 +41 опасность
перегрева
1008.5 974.9 +37.3
21 12.06 ЮЗ 2 10 км 9/0
[Ci sp]
+33.8 +19.8 44 +40 +40 очень
душно
1011.0 977.4
00 13.06 В 2 10 км зарница 9/1 600 м
[Cb cap Ac trans Ci sp]
+30.1 +22.0 62 +39 +39 очень
душно
1012.3 978.7
03 13.06 ЮЗ 3 10 км зарница 9/1 600 м
[Cb cap Ac trans Ci sp]
+30.0 +22.1 63 +39 +39 очень
душно
1010.9 977.4
06 13.06 З 1 10 км слаб. дождь 9/1 600 м
[Cb cap Ac As Ci sp]
+27.9 +24.0 79 +39 +39 очень
душно
1012.8 979.1 +27.6 1
09 13.06 З 2 10 км {дождь} 9/1 600 м
[Sc Ac trans Cs]
+31.4 +23.2 62 +42 +47 опасность
перегрева
1013.7 980.1
12 13.06 СЗ 2 10 км {дождь} 9/4 600 м
[Cu Sc Ac trans Cs]
+33.8 +22.4 51 +43 +50 опасность
перегрева
1012.6 979.0 0.0
15 13.06 ЮЗ 3 10 км {гроза} 9/1 600 м
[Cu Sc Ac trans Ci sp]
+34.0 +21.8 49 +42 +47 опасность
перегрева
1010.2 976.6
18 13.06 З 2 10 км {гроза} 9/1 600 м
[Cu Sc Ac trans Ci sp]
+34.4 +21.5 47 +42 +42 опасность
перегрева
1009.2 975.6 +35.8 0.0
21 13.06 штиль 0 10 км гроза без осадков 9/1 600 м
[Cb cap Ac trans Ci sp]
+29.8 +22.2 64 +39 +39 очень
душно
1011.8 978.0
00 14.06 ЮЗ 3 10 км в посл. час гроза 9/1 600 м
[Cb cap Ac As Ci sp]
+29.7 +22.1 64 +39 +39 очень
душно
1012.4 978.7
03 14.06 Ю 5 10 км гроза, ливневой дождь 10/1 600 м
[Cb cap Ac As]
+23.6 +21.3 87 +30 +30 очень
душно
1012.1 978.1
06 14.06 С 2 10 км {гроза, дождь} 9/1 600 м
[Sc Ac As Ci sp]
+25.0 +21.0 78 +31 +31 очень
душно
1012.1 978.2 +23.0 0.6
09 14.06 С 1 10 км 9/0
[Ac trans Ci sp]
+28.9 +21.3 64 +37 +47 очень
душно
1013.1 979.2
12 14.06 СЗ 1 10 км 9/0
[Ci sp]
+35.5 +19.6 39 +41 +61 опасность
перегрева
1011.6 978.1
15 14.06 С 2 10 км 9/1 600 м
[Sc Ac trans Ci sp]
+36.5 +20.7 40 +43 +49 опасность
перегрева
1009.5 975.8
18 14.06 СВ 1 10 км 9/1 600 м
[Sc Ac trans Ci sp]
+36.1 +21.5 43 +44 +44 опасность
перегрева
1008.8 975.1 +38.1
21 14.06 Ю 5 10 км 9/0
[Ci sp]
+32.4 +23.7 60 +44 +44 опасность
перегрева
1011.3 977.6
00 15.06 ЮЗ 1 10 км 9/0
[Ci sp]
+31.0 +22.9 62 +41 +41 опасность
перегрева
1011.4 977.9
03 15.06 ЮЗ 2 10 км 9/0
[Ci sp]
+28.6 +23.5 74 +39 +39 очень
душно
1010.2 976.7
06 15.06 ЮЗ 2 10 км 9/0
[Ci sp]
+27.7 +23.1 76 +37 +37 очень
душно
1011.3 977.7 +27.4
09 15.06 ЮЗ 3 10 км 9/0
[Ac cast Ci sp]
+30.4 +21.1 58 +38 +42 очень
душно
1012.4 978.7
12 15.06 З 3 10 км 9/0
[Ci sp]
+34.2 +21.0 46 +41 +56 опасность
перегрева
1011.4 977.9
15 15.06 ЮЗ 1 10 км 9/0
[Ac trans Ci sp]
+36.7 +21.9 42 +45 +56 опасность
перегрева
1009.1 975.6
18 15.06 Ю 3 10 км 9/0
[Ci sp]
+36.0 +19.9 39 +42 +42 опасность
перегрева
1009.2 975.7 +37.5
21 15.06 Ю 5 10 км 9/0
[Ci sp]
+32.7 +22.3 54 +42 +42 опасность
перегрева
1012.0 978.3
00 16.06 Ю 5 10 км 9/0
[Ci sp]
+31.1 +22.5 60 +40 +40 очень
душно
1012.3 978.7
03 16.06 Ю 4 10 км 9/0
[Ci sp]
+29.0 +22.7 69 +38 +38 очень
душно
1010.8 977.3
06 16.06 Ю 3 10 км 9/0
[Ac trans Ci sp]
+28.1 +23.0 74 +38 +38 очень
душно
1011.9 978.3 +27.8
09 16.06 ЮЗ 3 10 км 9/0
[Ci sp]
+30.7 +23.0 64 +41 +48 опасность
перегрева
1013.0 979.3
12 16.06 З 3 10 км 9/1 600 м
[Cu Sc Ci sp]
+35.0 +22.2 48 +44 +57 опасность
перегрева
1011.9 978.4
15 16.06 З 2 10 км 9/1 600 м
[Sc Ci sp]
+37.5 +21.0 38 +44 +53 опасность
перегрева
1009.5 976.1
18 16.06 Ю 3 10 км 9/0
[Ci sp]
+35.6 +20.1 40 +41 +42 опасность
перегрева
1009.3 975.8 +38.4
21 16.06 Ю 4 10 км 9/0
[Ci sp]
+33.8 +21.2 48 +41 +41 опасность
перегрева
1011.4 977.8
00 17.06 Ю 3 10 км зарница 9/1 600 м
[Cb cap Ci sp]
+32.0 +21.9 55 +41 +41 опасность
перегрева
1011.7 978.3
03 17.06 ЮЗ 2 10 км 9/0
[Ac trans Ci sp]
+31.0 +21.8 58 +39 +39 очень
душно
1009.5 976.2
06 17.06 Ю 6 10 км 9/1 1200 м
[Cb cap Ac As Ci sp]
+29.3 +22.2 66 +38 +38 очень
душно
1013.0 979.4 +29.0
09 17.06 ЮЗ 3 10 км 9/1 1000 м
[Cb cap Ac As Ci sp]
+28.0 +19.3 59 +34 +38 очень
душно
1012.7 978.9
12 17.06 З 2 10 км 9/0
[Ci sp]
+32.4 +21.4 52 +40 +58 опасность
солнечного
удара
1011.8 978.2
15 17.06 СВ 1 10 км 9/0
[Ci sp]
+37.2 +19.3 35 +42 +53 опасность
перегрева
1009.0 975.7
18 17.06 Ю 4 10 км 9/0
[Ci sp]
+35.4 +17.4 35 +39 +39 очень
душно
1009.4 975.9 +38.1
21 17.06 ЮВ 3 10 км 9/0
[Ci sp]
+33.0 +21.3 50 +41 +41 опасность
перегрева
1012.0 978.2
00 18.06 СЗ 5 10 км 9/0
[Ci sp]
+30.5 +22.0 61 +39 +39 очень
душно
1012.5 978.8
03 18.06 ЮЗ 3 10 км 9/0
[Ci sp]
+28.8 +21.8 66 +37 +37 очень
душно
1011.3 977.8
06 18.06 ЮЗ 3 10 км 9/0
[Ci sp]
+27.5 +22.0 72 +36 +36 очень
душно
1012.1 978.4 +27.3

 

Местоположение метеостанции Уагадугу (Буркина-Фасо): широта 12.35 долгота -1.52 высота над уровнем моря 306 м.

В архиве по умолчанию представлена погода в Уагадугу за последнюю неделю. Архивные данные за месяц целиком и за предыдущие месяцы, начиная с января 2011 года, Вы можете получить, выбрав интересующий диапазон дат из раскрывающегося списка и нажав кнопку "Ввод!".


*Определитесь, кто Вы:
робот инопланетянин человек

Внимание! Время в таблицах - всемирное. Для получения местного времени необходимо прибавить поправку, которая равна 0 ч.

Смотрите также архив погоды в соседних городах и на ближайших метеорологических станциях:

Погода в По (Буркина-Фасо) (139 км)
Погода в Вахигуе (Буркина-Фасо) (167 км)
Погода в Боромо (Буркина-Фасо) (167 км)
Погода в Навронго (Гана) (168 км)
Погода в Фада-Нгурме (Буркина-Фасо) (209 км)
Погода в Дедугу (Буркина-Фасо) (213 км)
Погода в Дори (Буркина-Фасо) (247 км)
Погода в Дапаоне (Того) (262 км)
Погода в Ва (Гана) (277 км)
Погода в Гауа (Буркина-Фасо) (289 км)

Пояснения к столбцам:

Ветер - указаны скорость ветра в м/с - средняя за 10 мин, порывы в срок и между сроками (в фигурных скобках) и направление, откуда дует ветер: С - северный, СВ - северо-восточный, В - восточный, ЮВ - юго-восточный, Ю - южный, ЮЗ - юго-западный, З - западный, СЗ - северо-западный.
Видимость - горизонтальная дальность видимости в метрах или километрах. При видимости от 1 до 10 км при отсутствии осадков обычно наблюдается дымка, при ухудшении видимости до 1 км и менее - туман. В сухую погоду видимость может ухудшаться дымом, пылью или мглою.
Явления - указаны атмосферные явления, наблюдавшиеся в срок или в последний час перед сроком; фигурными скобками обозначены явления, наблюдавшиеся между сроками (за 1-3 часа до срока); квадратными скобками обозначены град или гололедные отложения с указанием их диаметра в мм.
Облачность - указаны через наклонную черту общая и нижняя облачность в баллах и высота нижней границы облаков в метрах; квадратными скобками обозначены формы облаков: Ci - перистые, Cs - перисто-слоистые, Cc - перисто-кучевые, Ac - высококучевые, As - высокослоистые, Sc - слоисто-кучевые, Ns - слоисто-дождевые, Cu - кучевые, Cb - кучево-дождевые. Подробнее классификацию облаков см. в Атласе облаков (PDF).
T - Температура воздуха - температура, измеренная на высоте 2 м над землей.
Td - Температура точки росы - температура, при понижении до которой содержащийся в воздухе водяной пар достигнет насыщения.
f - Относительная влажность воздуха - влажноcть воздуха, измеренная на высоте 2 м над землей.
Te - Эффективная температура - температура, которую ощущает одетый по сезону человек в тени. Характеристика душности погоды. При расчете учитывается влияние влажности воздуха и скорости ветра на теплоощущения человека.
Tes - Эффективная температура на солнце - температура, которую ощущает человек, с поправкой на солнечный нагрев. Характеристика знойности погоды. Зависит от высоты солнца над горизонтом, облачности и скорости ветра. Ночью, в пасмурную погоду, а также при ветре 12 м/с и более поправка равна нулю.
P - Атмосферное давление - приведенное к уровню моря атмосферное давление.
Po - Атмосферное давление - измеренное на уровне метеостанции атмосферное давление.
Tmin - Минимальная температура - минимум температуры воздуха на высоте 2 м над землей.
Tmax - Максимальная температура - максимум температуры воздуха на высоте 2 м над землей.
R - Количество осадков - Количество выпавших осадков за период времени, мм. При наведении курсора мыши на число - период времени, за который выпало указанное количество осадков.
R24 - Количество осадков - Количество выпавших осадков за 24 часа, мм.
S - Снежный покров - Высота снежного покрова, см. При наведении курсора мыши на число - состояние снежного покрова и степень покрытия местности в баллах.